Weather History for Falfurrias, TX

Change the Weather History Date:

Sunday, October 28, 2012

  Actual Average (KNQI) Record (KNQI)
Temperature  
Mean Temperature 62 °F -  
Max Temperature 70 °F 80 °F 89 °F (1996)
Min Temperature 52 °F 61 °F 39 °F (2008)
Degree Days  
Heating Degree Days 4    
Growing Degree Days 12 (Base 50)    
Moisture  
Dew Point 33 °F    
Average Humidity 35    
Maximum Humidity 57    
Minimum Humidity 17    
Precipitation  
Precipitation 0.00 in - - ()
Sea Level Pressure  
Sea Level Pressure 30.19 in    
Wind  
Wind Speed 5 mph (NNE)    
Max Wind Speed 12 mph    
Max Gust Speed 16 mph    
Visibility 10 miles    
Events      
Averages and records for this station are not official NWS values.
T = Trace of Precipitation, MM = Missing Value Source: NWS Daily Summary

Daily Weather History Graph

Daily Weather History Graph

Search for Another Location

Airport:

Trip Planner

Search our weather history database for the weather conditions in past years. The results will help you decide how hot, cold, wet, or windy it might be!

Date:

Astronomy

Oct. 28, 2012 Rise Set
Actual Time 7:40 AM CDT 6:51 PM CDT
Civil Twilight 7:16 AM CDT 7:15 PM CDT
Nautical Twilight 6:49 AM CDT 7:43 PM CDT
Astronomical Twilight 6:21 AM CDT 8:10 PM CDT
Moon 6:09 PM CDT (10/28) 6:37 AM CDT (10/28)
Length of Visible Light 11h 59m
Length of Day
11h 11m
Waxing Gibbous, 99% of the Moon is Illuminated
Oct 28
Waxing Gibbous
Oct 29
Full
Nov 6
Last Quarter
Nov 13
New
Nov 20
First Quarter

Hourly Weather History & Observations

Time (CDT) Temp. Dew Point Humidity Pressure Visibility Wind Dir Wind Speed Gust Speed Precip Events Conditions
12:15 AM 59.9 °F 41.4 °F 50% 30.17 in 10.0 mi Calm Calm - N/A   Overcast
12:35 AM 60.1 °F 41.4 °F 50% 30.17 in 10.0 mi Calm Calm - N/A   Overcast
12:55 AM 60.8 °F 40.3 °F 47% 30.17 in 10.0 mi Calm Calm - N/A   Overcast
1:15 AM 61.0 °F 40.1 °F 46% 30.18 in 10.0 mi NNW 3.5 mph - N/A   Overcast
1:35 AM 61.7 °F 38.3 °F 42% 30.17 in 10.0 mi North 4.6 mph - N/A   Overcast
2:15 AM 61.7 °F 37.8 °F 41% 30.17 in 10.0 mi NNE 6.9 mph - N/A   Overcast
2:55 AM 61.5 °F 36.9 °F 40% 30.17 in 10.0 mi North 6.9 mph - N/A   Overcast
3:15 AM 61.2 °F 37.4 °F 41% 30.17 in 10.0 mi NNE 8.1 mph - N/A   Overcast
3:35 AM 60.8 °F 36.7 °F 41% 30.17 in 10.0 mi NNE 6.9 mph - N/A   Overcast
3:55 AM 60.8 °F 36.3 °F 40% 30.17 in 10.0 mi NNE 6.9 mph - N/A   Overcast
4:15 AM 60.3 °F 35.8 °F 40% 30.17 in 10.0 mi NNE 5.8 mph - N/A   Overcast
4:35 AM 59.9 °F 35.6 °F 40% 30.17 in 10.0 mi NNE 3.5 mph - N/A   Overcast
4:55 AM 59.9 °F 36.1 °F 41% 30.17 in 10.0 mi NNE 5.8 mph - N/A   Overcast
5:15 AM 59.9 °F 36.3 °F 41% 30.17 in 10.0 mi North 3.5 mph - N/A   Overcast
5:35 AM 59.9 °F 36.3 °F 41% 30.18 in 10.0 mi North 5.8 mph - N/A   Overcast
5:55 AM 59.5 °F 36.3 °F 42% 30.18 in 10.0 mi NNE 4.6 mph - N/A   Overcast
6:15 AM 59.5 °F 36.0 °F 41% 30.19 in 10.0 mi North 6.9 mph - N/A   Overcast
6:35 AM 59.4 °F 36.1 °F 42% 30.19 in 10.0 mi NNE 6.9 mph - N/A   Overcast
6:55 AM 59.4 °F 36.0 °F 42% 30.19 in 10.0 mi North 6.9 mph - N/A   Overcast
7:15 AM 59.2 °F 35.6 °F 41% 30.20 in 10.0 mi North 8.1 mph - N/A   Overcast
7:35 AM 59.0 °F 36.1 °F 42% 30.21 in 10.0 mi North 9.2 mph - N/A   Overcast
7:55 AM 59.0 °F 36.0 °F 42% 30.21 in 10.0 mi NNE 9.2 mph - N/A   Overcast
8:15 AM 59.2 °F 35.8 °F 42% 30.22 in 10.0 mi NNE 5.8 mph - N/A   Overcast
8:35 AM 59.2 °F 36.5 °F 43% 30.23 in 10.0 mi NNE 5.8 mph - N/A   Overcast
8:55 AM 59.5 °F 36.3 °F 42% 30.24 in 10.0 mi North 9.2 mph - N/A   Overcast
9:15 AM 59.9 °F 36.0 °F 41% 30.24 in 10.0 mi North 9.2 mph - N/A   Overcast
9:35 AM 60.3 °F 36.3 °F 41% 30.25 in 10.0 mi NNE 6.9 mph - N/A   Overcast
9:55 AM 61.0 °F 35.6 °F 39% 30.25 in 10.0 mi North 8.1 mph - N/A   Overcast
10:15 AM 61.5 °F 35.1 °F 37% 30.25 in 10.0 mi NNE 9.2 mph 16.1 mph N/A   Overcast
10:35 AM 63.0 °F 34.9 °F 35% 30.25 in 10.0 mi NNE 11.5 mph 16.1 mph N/A   Mostly Cloudy
10:55 AM 63.5 °F 33.4 °F 33% 30.25 in 10.0 mi North 9.2 mph - N/A   Scattered Clouds
11:35 AM 64.2 °F 33.6 °F 32% 30.24 in 10.0 mi NE 11.5 mph - N/A   Clear
11:55 AM 64.9 °F 32.2 °F 29% 30.24 in 10.0 mi NE 10.4 mph 16.1 mph N/A   Clear
12:15 PM 65.7 °F 32.5 °F 29% 30.24 in 10.0 mi North 8.1 mph - N/A   Clear
12:35 PM 66.2 °F 32.0 °F 28% 30.23 in 10.0 mi NNE 9.2 mph - N/A   Clear
1:15 PM 67.8 °F 30.6 °F 25% 30.22 in 10.0 mi NE 8.1 mph - N/A   Clear
1:35 PM 68.9 °F 29.7 °F 23% 30.21 in 10.0 mi NNE 9.2 mph - N/A   Clear
1:55 PM 68.4 °F 27.3 °F 22% 30.20 in 10.0 mi North 9.2 mph - N/A   Clear
2:15 PM 68.4 °F 28.0 °F 22% 30.19 in 10.0 mi North 9.2 mph - N/A   Clear
2:35 PM 69.6 °F 25.3 °F 19% 30.19 in 10.0 mi NE 6.9 mph - N/A   Clear
2:55 PM 69.8 °F 27.0 °F 20% 30.18 in 10.0 mi ENE 8.1 mph - N/A   Clear
3:15 PM 69.8 °F 23.7 °F 18% 30.17 in 10.0 mi North 3.5 mph - N/A   Clear
3:35 PM 70.5 °F 24.3 °F 18% 30.16 in 10.0 mi North 6.9 mph - N/A   Clear
3:55 PM 70.5 °F 23.5 °F 17% 30.15 in 10.0 mi North 10.4 mph - N/A   Clear
4:15 PM 70.3 °F 23.4 °F 17% 30.15 in 10.0 mi NE 3.5 mph - N/A   Clear
4:35 PM 70.9 °F 25.3 °F 18% 30.15 in 10.0 mi NNE 10.4 mph 16.1 mph N/A   Clear
4:55 PM 70.7 °F 26.4 °F 19% 30.15 in 10.0 mi NNE 5.8 mph - N/A   Clear
5:15 PM 70.9 °F 27.1 °F 20% 30.14 in 10.0 mi North 10.4 mph - N/A   Clear
5:35 PM 70.7 °F 26.4 °F 19% 30.15 in 10.0 mi NNE 8.1 mph - N/A   Clear
5:55 PM 70.0 °F 25.7 °F 19% 30.15 in 10.0 mi NNE 4.6 mph - N/A   Clear
6:15 PM 69.8 °F 25.3 °F 19% 30.15 in 10.0 mi NE 5.8 mph - N/A   Clear
6:55 PM 67.5 °F 27.3 °F 22% 30.16 in 10.0 mi NE 3.5 mph - N/A   Clear
7:15 PM 66.0 °F 28.0 °F 24% 30.16 in 10.0 mi NE 3.5 mph - N/A   Clear
7:35 PM 63.7 °F 30.0 °F 28% 30.17 in 10.0 mi East 4.6 mph - N/A   Clear
8:15 PM 61.7 °F 31.3 °F 32% 30.18 in 10.0 mi East 3.5 mph - N/A   Clear
8:35 PM 60.4 °F 30.9 °F 33% 30.19 in 10.0 mi East 3.5 mph - N/A   Clear
9:15 PM 59.5 °F 30.6 °F 33% 30.19 in 10.0 mi East 3.5 mph - N/A   Clear
9:35 PM 59.0 °F 31.3 °F 35% 30.20 in 10.0 mi Calm Calm - N/A   Clear
9:55 PM 58.1 °F 32.4 °F 38% 30.20 in 10.0 mi Calm Calm - N/A   Clear
10:15 PM 57.0 °F 34.5 °F 43% 30.21 in 10.0 mi Calm Calm - N/A   Clear
10:35 PM 55.8 °F 35.1 °F 46% 30.21 in 10.0 mi Calm Calm - N/A   Clear
10:55 PM 54.9 °F 36.3 °F 50% 30.21 in 10.0 mi Calm Calm - N/A   Clear
11:15 PM 53.8 °F 36.7 °F 52% 30.21 in 10.0 mi Calm Calm - N/A   Clear
11:35 PM 53.2 °F 37.4 °F 55% 30.20 in 10.0 mi Calm Calm - N/A   Clear
11:55 PM 52.3 °F 37.4 °F 57% 30.20 in 10.0 mi Calm Calm - N/A   Clear